| State | Tennessee | Latest | Poor (165 cfs) | |
| River | Pigeon River | Rating | Observed | Estimated |
| Updated | 2026-05-05 12:00 (29 minutes ago) | Flood - The river is flooding. Obstacles can be treacherous or deadly. The river should be avoided at this stage for casual trips and definitely for the inexperienced. Trips should be attempted only with protective gear and equipment.Flood | (none) | 2155 |
| Discharge | 165 cfs (median: 1200 cfs) | High - The river is high and potentially dangerous, especially for the young and / or inexperienced. Normal stream obstacles are sometimes difficult to navigate. Extended distances can be attempted, but canoe travel may not be advisable.High | (none) | 1473 |
| Height | 7.04 feet | Good - Conditions are ideal for a canoe or kayak. Boats typically will drag on fewer than one-quarter of riffles, if at all, and portages are unnecessary or rare. Normal float lengths can be attempted without a problem.Good | (none) | 988 |
| Trend | Falling (falling over 24 hours) | Low - River is low but can still be floated. Some riffles are okay but most come with significant dragging and might need a portage. Float lengths should be reduced to accommodate low flow, dragging, and portages.Low | (none) | 720 |
| USGS | USGS Site ( Duck Duck Go Maps) | Poor - River is too low to float comfortably. Most or all riffles will drag or must be portaged and some obstacles (such as slick shelf rock) cause undue problems. Avoid the river at this stage for casual paddling trips.Poor | (none) | 542 |
A total of 1 rows are displayed.
| Miles | 4.5 |
| Trips | 1 |
| People | 6 |
| Dates | 1 |
| Years | 1 |
| Months | 1 |
| Rows | 1 |
| Sources | 1 |
BLG - Bluegill
CCF - Channel Catfish
CP - Chain Pickerel
FWD - Freshwater Drum
GSF - Green Sunfish
KSB - Kentucky Spotted Bass
LMB - Largemouth Bass
LSF - Longear Sunfish
RB - Rock Bass / Goggle Eye
RSF - Redear Sunfish
RT - Rainbow Trout
SMB - Smallmouth Bass
WB - White Bass
WF - Whitefish
WL - WalleyeThe classic River Trips application is still available for use. It is updated with the new system using a data retrofit. It is no longer maintained. The original River Trips application is no longer updated (as of 1 Dec 2016) but can be checked for errors or for the condition of the data before it was converted to the new system.
| Observation | Height | Discharge | Maximum Discharge | Minimum Discharge | Mean Discharge | P05 | P10 | P20 | P25 | P50 (Median) | P75 | P80 | P90 | P95 |
|---|---|---|---|---|---|---|---|---|---|---|---|---|---|---|
| 2026-05-05 12:00 | 7.04 | 165 | 5150 (2013) | 256 (2008) | 1430 | 363 | 536 | 802 | 845 | 1200 | 1930 | 2020 | 2330 | 3930 |
| 2026-05-05 11:45 | 7.05 | 167 | 5150 (2013) | 256 (2008) | 1430 | 363 | 536 | 802 | 845 | 1200 | 1930 | 2020 | 2330 | 3930 |
| 2026-05-05 11:30 | 7.05 | 167 | 5150 (2013) | 256 (2008) | 1430 | 363 | 536 | 802 | 845 | 1200 | 1930 | 2020 | 2330 | 3930 |
| 2026-05-05 11:15 | 7.04 | 165 | 5150 (2013) | 256 (2008) | 1430 | 363 | 536 | 802 | 845 | 1200 | 1930 | 2020 | 2330 | 3930 |
| 2026-05-05 11:00 | 7.05 | 167 | 5150 (2013) | 256 (2008) | 1430 | 363 | 536 | 802 | 845 | 1200 | 1930 | 2020 | 2330 | 3930 |
| 2026-05-05 10:30 | 7.05 | 167 | 5150 (2013) | 256 (2008) | 1430 | 363 | 536 | 802 | 845 | 1200 | 1930 | 2020 | 2330 | 3930 |
| 2026-05-05 10:15 | 7.04 | 165 | 5150 (2013) | 256 (2008) | 1430 | 363 | 536 | 802 | 845 | 1200 | 1930 | 2020 | 2330 | 3930 |
| 2026-05-05 10:00 | 7.03 | 162 | 5150 (2013) | 256 (2008) | 1430 | 363 | 536 | 802 | 845 | 1200 | 1930 | 2020 | 2330 | 3930 |
| 2026-05-05 09:45 | 7.04 | 165 | 5150 (2013) | 256 (2008) | 1430 | 363 | 536 | 802 | 845 | 1200 | 1930 | 2020 | 2330 | 3930 |
| 2026-05-05 09:30 | 7.03 | 162 | 5150 (2013) | 256 (2008) | 1430 | 363 | 536 | 802 | 845 | 1200 | 1930 | 2020 | 2330 | 3930 |
| 2026-05-05 09:15 | 7.04 | 165 | 5150 (2013) | 256 (2008) | 1430 | 363 | 536 | 802 | 845 | 1200 | 1930 | 2020 | 2330 | 3930 |
| 2026-05-05 09:00 | 7.04 | 165 | 5150 (2013) | 256 (2008) | 1430 | 363 | 536 | 802 | 845 | 1200 | 1930 | 2020 | 2330 | 3930 |
| 2026-05-05 08:45 | 7.04 | 165 | 5150 (2013) | 256 (2008) | 1430 | 363 | 536 | 802 | 845 | 1200 | 1930 | 2020 | 2330 | 3930 |
| 2026-05-05 08:30 | 7.04 | 165 | 5150 (2013) | 256 (2008) | 1430 | 363 | 536 | 802 | 845 | 1200 | 1930 | 2020 | 2330 | 3930 |
| 2026-05-05 08:15 | 7.04 | 165 | 5150 (2013) | 256 (2008) | 1430 | 363 | 536 | 802 | 845 | 1200 | 1930 | 2020 | 2330 | 3930 |
| 2026-05-05 08:00 | 7.04 | 165 | 5150 (2013) | 256 (2008) | 1430 | 363 | 536 | 802 | 845 | 1200 | 1930 | 2020 | 2330 | 3930 |
| 2026-05-05 07:45 | 7.03 | 162 | 5150 (2013) | 256 (2008) | 1430 | 363 | 536 | 802 | 845 | 1200 | 1930 | 2020 | 2330 | 3930 |
| 2026-05-05 07:30 | 7.03 | 162 | 5150 (2013) | 256 (2008) | 1430 | 363 | 536 | 802 | 845 | 1200 | 1930 | 2020 | 2330 | 3930 |
| 2026-05-05 07:15 | 7.03 | 162 | 5150 (2013) | 256 (2008) | 1430 | 363 | 536 | 802 | 845 | 1200 | 1930 | 2020 | 2330 | 3930 |
| 2026-05-05 07:00 | 7.03 | 162 | 5150 (2013) | 256 (2008) | 1430 | 363 | 536 | 802 | 845 | 1200 | 1930 | 2020 | 2330 | 3930 |
| 2026-05-05 06:45 | 7.02 | 159 | 5150 (2013) | 256 (2008) | 1430 | 363 | 536 | 802 | 845 | 1200 | 1930 | 2020 | 2330 | 3930 |
| 2026-05-05 06:30 | 7.05 | 167 | 5150 (2013) | 256 (2008) | 1430 | 363 | 536 | 802 | 845 | 1200 | 1930 | 2020 | 2330 | 3930 |
| 2026-05-05 06:15 | 7.02 | 159 | 5150 (2013) | 256 (2008) | 1430 | 363 | 536 | 802 | 845 | 1200 | 1930 | 2020 | 2330 | 3930 |
| 2026-05-05 06:00 | 7.03 | 162 | 5150 (2013) | 256 (2008) | 1430 | 363 | 536 | 802 | 845 | 1200 | 1930 | 2020 | 2330 | 3930 |
| 2026-05-05 05:45 | 7.04 | 165 | 5150 (2013) | 256 (2008) | 1430 | 363 | 536 | 802 | 845 | 1200 | 1930 | 2020 | 2330 | 3930 |
| 2026-05-05 05:30 | 7.04 | 165 | 5150 (2013) | 256 (2008) | 1430 | 363 | 536 | 802 | 845 | 1200 | 1930 | 2020 | 2330 | 3930 |
| 2026-05-05 05:15 | 7.03 | 162 | 5150 (2013) | 256 (2008) | 1430 | 363 | 536 | 802 | 845 | 1200 | 1930 | 2020 | 2330 | 3930 |
| 2026-05-05 05:00 | 7.04 | 165 | 5150 (2013) | 256 (2008) | 1430 | 363 | 536 | 802 | 845 | 1200 | 1930 | 2020 | 2330 | 3930 |
| 2026-05-05 04:45 | 7.03 | 162 | 5150 (2013) | 256 (2008) | 1430 | 363 | 536 | 802 | 845 | 1200 | 1930 | 2020 | 2330 | 3930 |
| 2026-05-05 04:30 | 7.03 | 162 | 5150 (2013) | 256 (2008) | 1430 | 363 | 536 | 802 | 845 | 1200 | 1930 | 2020 | 2330 | 3930 |
| 2026-05-05 04:15 | 7.05 | 167 | 5150 (2013) | 256 (2008) | 1430 | 363 | 536 | 802 | 845 | 1200 | 1930 | 2020 | 2330 | 3930 |
| 2026-05-05 04:00 | 7.05 | 167 | 5150 (2013) | 256 (2008) | 1430 | 363 | 536 | 802 | 845 | 1200 | 1930 | 2020 | 2330 | 3930 |
| 2026-05-05 03:45 | 7.05 | 167 | 5150 (2013) | 256 (2008) | 1430 | 363 | 536 | 802 | 845 | 1200 | 1930 | 2020 | 2330 | 3930 |
| 2026-05-05 03:30 | 7.06 | 170 | 5150 (2013) | 256 (2008) | 1430 | 363 | 536 | 802 | 845 | 1200 | 1930 | 2020 | 2330 | 3930 |
| 2026-05-05 03:15 | 7.04 | 165 | 5150 (2013) | 256 (2008) | 1430 | 363 | 536 | 802 | 845 | 1200 | 1930 | 2020 | 2330 | 3930 |
| 2026-05-05 03:00 | 7.05 | 167 | 5150 (2013) | 256 (2008) | 1430 | 363 | 536 | 802 | 845 | 1200 | 1930 | 2020 | 2330 | 3930 |
| 2026-05-05 02:45 | 7.05 | 167 | 5150 (2013) | 256 (2008) | 1430 | 363 | 536 | 802 | 845 | 1200 | 1930 | 2020 | 2330 | 3930 |
| 2026-05-05 02:30 | 7.06 | 170 | 5150 (2013) | 256 (2008) | 1430 | 363 | 536 | 802 | 845 | 1200 | 1930 | 2020 | 2330 | 3930 |
| 2026-05-05 02:15 | 7.06 | 170 | 5150 (2013) | 256 (2008) | 1430 | 363 | 536 | 802 | 845 | 1200 | 1930 | 2020 | 2330 | 3930 |
| 2026-05-05 02:00 | 7.06 | 170 | 5150 (2013) | 256 (2008) | 1430 | 363 | 536 | 802 | 845 | 1200 | 1930 | 2020 | 2330 | 3930 |
| 2026-05-05 01:45 | 7.05 | 167 | 5150 (2013) | 256 (2008) | 1430 | 363 | 536 | 802 | 845 | 1200 | 1930 | 2020 | 2330 | 3930 |
| 2026-05-05 01:30 | 7.05 | 167 | 5150 (2013) | 256 (2008) | 1430 | 363 | 536 | 802 | 845 | 1200 | 1930 | 2020 | 2330 | 3930 |
| 2026-05-05 01:15 | 7.04 | 165 | 5150 (2013) | 256 (2008) | 1430 | 363 | 536 | 802 | 845 | 1200 | 1930 | 2020 | 2330 | 3930 |
| 2026-05-05 01:00 | 7.05 | 167 | 5150 (2013) | 256 (2008) | 1430 | 363 | 536 | 802 | 845 | 1200 | 1930 | 2020 | 2330 | 3930 |
| 2026-05-05 00:45 | 7.06 | 170 | 5150 (2013) | 256 (2008) | 1430 | 363 | 536 | 802 | 845 | 1200 | 1930 | 2020 | 2330 | 3930 |
| 2026-05-05 00:30 | 7.06 | 170 | 5150 (2013) | 256 (2008) | 1430 | 363 | 536 | 802 | 845 | 1200 | 1930 | 2020 | 2330 | 3930 |
| 2026-05-05 00:15 | 7.05 | 167 | 5150 (2013) | 256 (2008) | 1430 | 363 | 536 | 802 | 845 | 1200 | 1930 | 2020 | 2330 | 3930 |
| 2026-05-05 00:00 | 7.05 | 167 | 5150 (2013) | 256 (2008) | 1430 | 363 | 536 | 802 | 845 | 1200 | 1930 | 2020 | 2330 | 3930 |
| 2026-05-04 23:45 | 7.06 | 170 | 5150 (2013) | 256 (2008) | 1430 | 363 | 536 | 802 | 845 | 1200 | 1930 | 2020 | 2330 | 3930 |
| 2026-05-04 23:30 | 7.06 | 170 | 5150 (2013) | 256 (2008) | 1430 | 363 | 536 | 802 | 845 | 1200 | 1930 | 2020 | 2330 | 3930 |
| 2026-05-04 23:15 | 7.06 | 170 | 5150 (2013) | 256 (2008) | 1430 | 363 | 536 | 802 | 845 | 1200 | 1930 | 2020 | 2330 | 3930 |
| 2026-05-04 23:00 | 7.05 | 167 | 5150 (2013) | 256 (2008) | 1430 | 363 | 536 | 802 | 845 | 1200 | 1930 | 2020 | 2330 | 3930 |
| 2026-05-04 22:45 | 7.05 | 167 | 3410 (1997) | 355 (2007) | 1280 | 426 | 522 | 699 | 738 | 1210 | 1690 | 1780 | 2150 | 2910 |
| 2026-05-04 22:30 | 7.07 | 173 | 3410 (1997) | 355 (2007) | 1280 | 426 | 522 | 699 | 738 | 1210 | 1690 | 1780 | 2150 | 2910 |
| 2026-05-04 22:15 | 7.05 | 167 | 3410 (1997) | 355 (2007) | 1280 | 426 | 522 | 699 | 738 | 1210 | 1690 | 1780 | 2150 | 2910 |
| 2026-05-04 22:00 | 7.06 | 170 | 3410 (1997) | 355 (2007) | 1280 | 426 | 522 | 699 | 738 | 1210 | 1690 | 1780 | 2150 | 2910 |
| 2026-05-04 21:45 | 7.07 | 173 | 3410 (1997) | 355 (2007) | 1280 | 426 | 522 | 699 | 738 | 1210 | 1690 | 1780 | 2150 | 2910 |
| 2026-05-04 21:30 | 7.08 | 175 | 3410 (1997) | 355 (2007) | 1280 | 426 | 522 | 699 | 738 | 1210 | 1690 | 1780 | 2150 | 2910 |
| 2026-05-04 21:15 | 7.08 | 175 | 3410 (1997) | 355 (2007) | 1280 | 426 | 522 | 699 | 738 | 1210 | 1690 | 1780 | 2150 | 2910 |
| 2026-05-04 21:00 | 7.10 | 181 | 3410 (1997) | 355 (2007) | 1280 | 426 | 522 | 699 | 738 | 1210 | 1690 | 1780 | 2150 | 2910 |
| 2026-05-04 20:45 | 7.25 | 226 | 3410 (1997) | 355 (2007) | 1280 | 426 | 522 | 699 | 738 | 1210 | 1690 | 1780 | 2150 | 2910 |
| 2026-05-04 20:30 | 7.93 | 530 | 3410 (1997) | 355 (2007) | 1280 | 426 | 522 | 699 | 738 | 1210 | 1690 | 1780 | 2150 | 2910 |
| 2026-05-04 20:15 | 8.80 | 1190 | 3410 (1997) | 355 (2007) | 1280 | 426 | 522 | 699 | 738 | 1210 | 1690 | 1780 | 2150 | 2910 |
| 2026-05-04 20:00 | 8.95 | 1330 | 3410 (1997) | 355 (2007) | 1280 | 426 | 522 | 699 | 738 | 1210 | 1690 | 1780 | 2150 | 2910 |
| 2026-05-04 19:45 | 8.95 | 1330 | 3410 (1997) | 355 (2007) | 1280 | 426 | 522 | 699 | 738 | 1210 | 1690 | 1780 | 2150 | 2910 |
| 2026-05-04 19:30 | 8.95 | 1330 | 3410 (1997) | 355 (2007) | 1280 | 426 | 522 | 699 | 738 | 1210 | 1690 | 1780 | 2150 | 2910 |
| 2026-05-04 19:15 | 8.96 | 1340 | 3410 (1997) | 355 (2007) | 1280 | 426 | 522 | 699 | 738 | 1210 | 1690 | 1780 | 2150 | 2910 |
| 2026-05-04 19:00 | 8.95 | 1330 | 3410 (1997) | 355 (2007) | 1280 | 426 | 522 | 699 | 738 | 1210 | 1690 | 1780 | 2150 | 2910 |
| 2026-05-04 18:45 | 8.97 | 1350 | 3410 (1997) | 355 (2007) | 1280 | 426 | 522 | 699 | 738 | 1210 | 1690 | 1780 | 2150 | 2910 |
| 2026-05-04 18:30 | 8.96 | 1340 | 3410 (1997) | 355 (2007) | 1280 | 426 | 522 | 699 | 738 | 1210 | 1690 | 1780 | 2150 | 2910 |
| 2026-05-04 18:15 | 8.66 | 1060 | 3410 (1997) | 355 (2007) | 1280 | 426 | 522 | 699 | 738 | 1210 | 1690 | 1780 | 2150 | 2910 |
| 2026-05-04 18:00 | 7.07 | 173 | 3410 (1997) | 355 (2007) | 1280 | 426 | 522 | 699 | 738 | 1210 | 1690 | 1780 | 2150 | 2910 |
| 2026-05-04 17:45 | 7.08 | 175 | 3410 (1997) | 355 (2007) | 1280 | 426 | 522 | 699 | 738 | 1210 | 1690 | 1780 | 2150 | 2910 |
| 2026-05-04 17:30 | 7.06 | 170 | 3410 (1997) | 355 (2007) | 1280 | 426 | 522 | 699 | 738 | 1210 | 1690 | 1780 | 2150 | 2910 |
| 2026-05-04 17:15 | 7.06 | 170 | 3410 (1997) | 355 (2007) | 1280 | 426 | 522 | 699 | 738 | 1210 | 1690 | 1780 | 2150 | 2910 |
| 2026-05-04 17:00 | 7.08 | 175 | 3410 (1997) | 355 (2007) | 1280 | 426 | 522 | 699 | 738 | 1210 | 1690 | 1780 | 2150 | 2910 |
| 2026-05-04 16:45 | 7.07 | 173 | 3410 (1997) | 355 (2007) | 1280 | 426 | 522 | 699 | 738 | 1210 | 1690 | 1780 | 2150 | 2910 |
| 2026-05-04 16:30 | 7.06 | 170 | 3410 (1997) | 355 (2007) | 1280 | 426 | 522 | 699 | 738 | 1210 | 1690 | 1780 | 2150 | 2910 |
| 2026-05-04 16:15 | 7.07 | 173 | 3410 (1997) | 355 (2007) | 1280 | 426 | 522 | 699 | 738 | 1210 | 1690 | 1780 | 2150 | 2910 |
| 2026-05-04 16:00 | 7.07 | 173 | 3410 (1997) | 355 (2007) | 1280 | 426 | 522 | 699 | 738 | 1210 | 1690 | 1780 | 2150 | 2910 |
| 2026-05-04 15:45 | 7.07 | 173 | 3410 (1997) | 355 (2007) | 1280 | 426 | 522 | 699 | 738 | 1210 | 1690 | 1780 | 2150 | 2910 |
| 2026-05-04 15:30 | 7.08 | 175 | 3410 (1997) | 355 (2007) | 1280 | 426 | 522 | 699 | 738 | 1210 | 1690 | 1780 | 2150 | 2910 |
| 2026-05-04 15:15 | 7.06 | 170 | 3410 (1997) | 355 (2007) | 1280 | 426 | 522 | 699 | 738 | 1210 | 1690 | 1780 | 2150 | 2910 |
| 2026-05-04 15:00 | 7.06 | 170 | 3410 (1997) | 355 (2007) | 1280 | 426 | 522 | 699 | 738 | 1210 | 1690 | 1780 | 2150 | 2910 |
| 2026-05-04 14:45 | 7.08 | 175 | 3410 (1997) | 355 (2007) | 1280 | 426 | 522 | 699 | 738 | 1210 | 1690 | 1780 | 2150 | 2910 |
| 2026-05-04 14:30 | 7.07 | 173 | 3410 (1997) | 355 (2007) | 1280 | 426 | 522 | 699 | 738 | 1210 | 1690 | 1780 | 2150 | 2910 |
| 2026-05-04 14:15 | 7.08 | 175 | 3410 (1997) | 355 (2007) | 1280 | 426 | 522 | 699 | 738 | 1210 | 1690 | 1780 | 2150 | 2910 |
| 2026-05-04 14:00 | 7.08 | 175 | 3410 (1997) | 355 (2007) | 1280 | 426 | 522 | 699 | 738 | 1210 | 1690 | 1780 | 2150 | 2910 |
| 2026-05-04 13:30 | 7.07 | 173 | 3410 (1997) | 355 (2007) | 1280 | 426 | 522 | 699 | 738 | 1210 | 1690 | 1780 | 2150 | 2910 |
| 2026-05-04 13:15 | 7.07 | 173 | 3410 (1997) | 355 (2007) | 1280 | 426 | 522 | 699 | 738 | 1210 | 1690 | 1780 | 2150 | 2910 |
| 2026-05-04 13:00 | 7.07 | 173 | 3410 (1997) | 355 (2007) | 1280 | 426 | 522 | 699 | 738 | 1210 | 1690 | 1780 | 2150 | 2910 |
| 2026-05-04 12:45 | 7.07 | 173 | 3410 (1997) | 355 (2007) | 1280 | 426 | 522 | 699 | 738 | 1210 | 1690 | 1780 | 2150 | 2910 |
| 2026-05-04 12:30 | 7.07 | 173 | 3410 (1997) | 355 (2007) | 1280 | 426 | 522 | 699 | 738 | 1210 | 1690 | 1780 | 2150 | 2910 |
| 2026-05-04 12:15 | 7.07 | 173 | 3410 (1997) | 355 (2007) | 1280 | 426 | 522 | 699 | 738 | 1210 | 1690 | 1780 | 2150 | 2910 |
| 2026-05-04 12:00 | 7.07 | 173 | 3410 (1997) | 355 (2007) | 1280 | 426 | 522 | 699 | 738 | 1210 | 1690 | 1780 | 2150 | 2910 |
| 2026-05-04 11:45 | 7.06 | 170 | 3410 (1997) | 355 (2007) | 1280 | 426 | 522 | 699 | 738 | 1210 | 1690 | 1780 | 2150 | 2910 |
| 2026-05-04 11:30 | 7.06 | 170 | 3410 (1997) | 355 (2007) | 1280 | 426 | 522 | 699 | 738 | 1210 | 1690 | 1780 | 2150 | 2910 |
| 2026-05-04 11:15 | 7.05 | 167 | 3410 (1997) | 355 (2007) | 1280 | 426 | 522 | 699 | 738 | 1210 | 1690 | 1780 | 2150 | 2910 |
| 2026-05-04 11:00 | 7.05 | 167 | 3410 (1997) | 355 (2007) | 1280 | 426 | 522 | 699 | 738 | 1210 | 1690 | 1780 | 2150 | 2910 |
| 2026-05-04 10:45 | 7.05 | 167 | 3410 (1997) | 355 (2007) | 1280 | 426 | 522 | 699 | 738 | 1210 | 1690 | 1780 | 2150 | 2910 |
| 2026-05-04 10:30 | 7.03 | 162 | 3410 (1997) | 355 (2007) | 1280 | 426 | 522 | 699 | 738 | 1210 | 1690 | 1780 | 2150 | 2910 |
| 2026-05-04 10:15 | 7.04 | 165 | 3410 (1997) | 355 (2007) | 1280 | 426 | 522 | 699 | 738 | 1210 | 1690 | 1780 | 2150 | 2910 |
| 2026-05-04 10:00 | 7.04 | 165 | 3410 (1997) | 355 (2007) | 1280 | 426 | 522 | 699 | 738 | 1210 | 1690 | 1780 | 2150 | 2910 |
| 2026-05-04 09:45 | 7.04 | 165 | 3410 (1997) | 355 (2007) | 1280 | 426 | 522 | 699 | 738 | 1210 | 1690 | 1780 | 2150 | 2910 |
| 2026-05-04 09:00 | 7.05 | 167 | 3410 (1997) | 355 (2007) | 1280 | 426 | 522 | 699 | 738 | 1210 | 1690 | 1780 | 2150 | 2910 |
| 2026-05-04 08:45 | 7.04 | 165 | 3410 (1997) | 355 (2007) | 1280 | 426 | 522 | 699 | 738 | 1210 | 1690 | 1780 | 2150 | 2910 |
| 2026-05-04 08:30 | 7.05 | 167 | 3410 (1997) | 355 (2007) | 1280 | 426 | 522 | 699 | 738 | 1210 | 1690 | 1780 | 2150 | 2910 |
| 2026-05-04 08:15 | 7.03 | 162 | 3410 (1997) | 355 (2007) | 1280 | 426 | 522 | 699 | 738 | 1210 | 1690 | 1780 | 2150 | 2910 |
| 2026-05-04 08:00 | 7.03 | 162 | 3410 (1997) | 355 (2007) | 1280 | 426 | 522 | 699 | 738 | 1210 | 1690 | 1780 | 2150 | 2910 |
| 2026-05-04 07:45 | 7.02 | 159 | 3410 (1997) | 355 (2007) | 1280 | 426 | 522 | 699 | 738 | 1210 | 1690 | 1780 | 2150 | 2910 |
| 2026-05-04 07:30 | 7.02 | 159 | 3410 (1997) | 355 (2007) | 1280 | 426 | 522 | 699 | 738 | 1210 | 1690 | 1780 | 2150 | 2910 |
| 2026-05-04 07:15 | 7.02 | 159 | 3410 (1997) | 355 (2007) | 1280 | 426 | 522 | 699 | 738 | 1210 | 1690 | 1780 | 2150 | 2910 |
| 2026-05-04 07:00 | 7.04 | 165 | 3410 (1997) | 355 (2007) | 1280 | 426 | 522 | 699 | 738 | 1210 | 1690 | 1780 | 2150 | 2910 |
| 2026-05-04 06:45 | 7.03 | 162 | 3410 (1997) | 355 (2007) | 1280 | 426 | 522 | 699 | 738 | 1210 | 1690 | 1780 | 2150 | 2910 |
| 2026-05-04 06:30 | 7.04 | 165 | 3410 (1997) | 355 (2007) | 1280 | 426 | 522 | 699 | 738 | 1210 | 1690 | 1780 | 2150 | 2910 |
| 2026-05-04 06:15 | 7.03 | 162 | 3410 (1997) | 355 (2007) | 1280 | 426 | 522 | 699 | 738 | 1210 | 1690 | 1780 | 2150 | 2910 |
| 2026-05-04 06:00 | 7.05 | 167 | 3410 (1997) | 355 (2007) | 1280 | 426 | 522 | 699 | 738 | 1210 | 1690 | 1780 | 2150 | 2910 |
| 2026-05-04 05:45 | 7.11 | 184 | 3410 (1997) | 355 (2007) | 1280 | 426 | 522 | 699 | 738 | 1210 | 1690 | 1780 | 2150 | 2910 |
| 2026-05-04 05:30 | 7.12 | 187 | 3410 (1997) | 355 (2007) | 1280 | 426 | 522 | 699 | 738 | 1210 | 1690 | 1780 | 2150 | 2910 |
| 2026-05-04 05:15 | 6.99 | 152 | 3410 (1997) | 355 (2007) | 1280 | 426 | 522 | 699 | 738 | 1210 | 1690 | 1780 | 2150 | 2910 |
| 2026-05-04 05:00 | 6.99 | 152 | 3410 (1997) | 355 (2007) | 1280 | 426 | 522 | 699 | 738 | 1210 | 1690 | 1780 | 2150 | 2910 |
| 2026-05-04 04:45 | 6.99 | 152 | 3410 (1997) | 355 (2007) | 1280 | 426 | 522 | 699 | 738 | 1210 | 1690 | 1780 | 2150 | 2910 |
| 2026-05-04 04:30 | 7.00 | 154 | 3410 (1997) | 355 (2007) | 1280 | 426 | 522 | 699 | 738 | 1210 | 1690 | 1780 | 2150 | 2910 |
| 2026-05-04 04:15 | 7.00 | 154 | 3410 (1997) | 355 (2007) | 1280 | 426 | 522 | 699 | 738 | 1210 | 1690 | 1780 | 2150 | 2910 |
| 2026-05-04 04:00 | 7.00 | 154 | 3410 (1997) | 355 (2007) | 1280 | 426 | 522 | 699 | 738 | 1210 | 1690 | 1780 | 2150 | 2910 |
| 2026-05-04 03:45 | 7.00 | 154 | 3410 (1997) | 355 (2007) | 1280 | 426 | 522 | 699 | 738 | 1210 | 1690 | 1780 | 2150 | 2910 |
| 2026-05-04 03:30 | 7.00 | 154 | 3410 (1997) | 355 (2007) | 1280 | 426 | 522 | 699 | 738 | 1210 | 1690 | 1780 | 2150 | 2910 |
| 2026-05-04 03:15 | 6.99 | 152 | 3410 (1997) | 355 (2007) | 1280 | 426 | 522 | 699 | 738 | 1210 | 1690 | 1780 | 2150 | 2910 |
| 2026-05-04 03:00 | 7.00 | 154 | 3410 (1997) | 355 (2007) | 1280 | 426 | 522 | 699 | 738 | 1210 | 1690 | 1780 | 2150 | 2910 |
| 2026-05-04 02:45 | 7.00 | 154 | 3410 (1997) | 355 (2007) | 1280 | 426 | 522 | 699 | 738 | 1210 | 1690 | 1780 | 2150 | 2910 |
| 2026-05-04 02:30 | 7.00 | 154 | 3410 (1997) | 355 (2007) | 1280 | 426 | 522 | 699 | 738 | 1210 | 1690 | 1780 | 2150 | 2910 |
| 2026-05-04 02:15 | 6.99 | 152 | 3410 (1997) | 355 (2007) | 1280 | 426 | 522 | 699 | 738 | 1210 | 1690 | 1780 | 2150 | 2910 |
| 2026-05-04 02:00 | 6.99 | 152 | 3410 (1997) | 355 (2007) | 1280 | 426 | 522 | 699 | 738 | 1210 | 1690 | 1780 | 2150 | 2910 |
| 2026-05-04 01:45 | 6.99 | 152 | 3410 (1997) | 355 (2007) | 1280 | 426 | 522 | 699 | 738 | 1210 | 1690 | 1780 | 2150 | 2910 |
| 2026-05-04 01:30 | 6.99 | 152 | 3410 (1997) | 355 (2007) | 1280 | 426 | 522 | 699 | 738 | 1210 | 1690 | 1780 | 2150 | 2910 |
| 2026-05-04 01:15 | 7.00 | 154 | 3410 (1997) | 355 (2007) | 1280 | 426 | 522 | 699 | 738 | 1210 | 1690 | 1780 | 2150 | 2910 |
| 2026-05-04 01:00 | 7.00 | 154 | 3410 (1997) | 355 (2007) | 1280 | 426 | 522 | 699 | 738 | 1210 | 1690 | 1780 | 2150 | 2910 |
| 2026-05-04 00:45 | 7.01 | 157 | 3410 (1997) | 355 (2007) | 1280 | 426 | 522 | 699 | 738 | 1210 | 1690 | 1780 | 2150 | 2910 |
| 2026-05-04 00:30 | 7.00 | 154 | 3410 (1997) | 355 (2007) | 1280 | 426 | 522 | 699 | 738 | 1210 | 1690 | 1780 | 2150 | 2910 |
| 2026-05-04 00:15 | 7.00 | 154 | 3410 (1997) | 355 (2007) | 1280 | 426 | 522 | 699 | 738 | 1210 | 1690 | 1780 | 2150 | 2910 |
| 2026-05-04 00:00 | 7.01 | 157 | 3410 (1997) | 355 (2007) | 1280 | 426 | 522 | 699 | 738 | 1210 | 1690 | 1780 | 2150 | 2910 |
| 2026-05-03 23:45 | 7.01 | 157 | 3410 (1997) | 355 (2007) | 1280 | 426 | 522 | 699 | 738 | 1210 | 1690 | 1780 | 2150 | 2910 |
| 2026-05-03 23:30 | 7.02 | 159 | 3410 (1997) | 355 (2007) | 1280 | 426 | 522 | 699 | 738 | 1210 | 1690 | 1780 | 2150 | 2910 |
| 2026-05-03 23:15 | 7.01 | 157 | 3410 (1997) | 355 (2007) | 1280 | 426 | 522 | 699 | 738 | 1210 | 1690 | 1780 | 2150 | 2910 |
| 2026-05-03 23:00 | 7.05 | 167 | 3410 (1997) | 355 (2007) | 1280 | 426 | 522 | 699 | 738 | 1210 | 1690 | 1780 | 2150 | 2910 |
A total of 145 rows are displayed for years 1997 through 2025.